This is the latest recevied weather packets stored in our database for station/object NK2J. If no packets are shown the sender has not sent any weather packets the latest 10 day(s).
| Time | Temp. | Humidity | Pressure | Rain* | Wind** | Luminosity | Snow |
|---|---|---|---|---|---|---|---|
| 1776964196 | 23.89° C | 27% | 1015.5 hPa | 0 mm | - | 620 W/m² | - |
| 1776963892 | 23.89° C | 25% | 1015.5 hPa | 0 mm | - | 580 W/m² | - |
| 1776963590 | 23.33° C | 25% | 1015.3 hPa | 0 mm | - | 399 W/m² | - |
| 1776963288 | 23.33° C | 25% | 1015.5 hPa | 0 mm | - | 399 W/m² | - |
| 1776962984 | 23.33° C | 25% | 1015.4 hPa | 0 mm | - | 399 W/m² | - |
| 1776962680 | 23.33° C | 25% | 1015.5 hPa | 0 mm | - | 399 W/m² | - |
| 1776962379 | 23.33° C | 25% | 1015.5 hPa | 0 mm | - | 399 W/m² | - |
| 1776962074 | 23.33° C | 25% | 1015.5 hPa | 0 mm | - | 399 W/m² | - |
| 1776961769 | 23.33° C | 25% | 1015.5 hPa | 0 mm | - | 399 W/m² | - |
| 1776961467 | 23.33° C | 27% | 1015.6 hPa | 0 mm | - | 429 W/m² | - |
| 1776961161 | 23.33° C | 27% | 1015.5 hPa | 0 mm | - | 451 W/m² | - |
| 1776960858 | 23.33° C | 25% | 1015.7 hPa | 0 mm | - | 456 W/m² | - |
| 1776960553 | 22.22° C | 29% | 1015.6 hPa | 0 mm | - | 432 W/m² | - |
| 1776960248 | 22.22° C | 29% | 1015.5 hPa | 0 mm | - | 432 W/m² | - |
| 1776959943 | 22.22° C | 29% | 1015.7 hPa | 0 mm | - | 432 W/m² | - |
| 1776959639 | 22.22° C | 25% | 1015.4 hPa | 0 mm | - | 416 W/m² | - |
| 1776959335 | 22.22° C | 25% | 1015.5 hPa | 0 mm | - | 416 W/m² | - |
| 1776959031 | 21.67° C | 26% | 1015.6 hPa | 0 mm | - | 373 W/m² | - |
| 1776958730 | 21.67° C | 26% | 1015.5 hPa | 0 mm | - | 373 W/m² | - |
| 1776958425 | 21.11° C | 25% | 1015.7 hPa | 0 mm | - | 255 W/m² | - |
| 1776958119 | 21.11° C | 25% | 1015.5 hPa | 0 mm | - | 255 W/m² | - |
| 1776957814 | 21.11° C | 25% | 1015.7 hPa | 0 mm | - | 255 W/m² | - |
| 1776957510 | 21.11° C | 25% | 1015.7 hPa | 0 mm | - | 255 W/m² | - |
| 1776957206 | 21.11° C | 25% | 1015.7 hPa | 0 mm | - | 255 W/m² | - |
| 1776956900 | 21.11° C | 25% | 1015.7 hPa | 0 mm | - | 255 W/m² | - |
* Rain latest hour (hover to see other rain measurements)
** Current wind speed in m/s (hover to see current wind gust speed)